| time (UTC) | temp F | wind direction | speed knots | gust knots | rain 1hr in | rain 24hr in | rain mn in | humidity % | barometer mb |
| 20260510070004 | 51 | 10 | 1.7 | 4.3 | 0.00 | 0.64 | 0.01 | 94 | 1009.1 |
| 20260510065503 | 51 | 352 | 1.7 | 4.3 | 0.00 | 0.64 | 0.01 | 94 | 1009.1 |
| 20260510065004 | 51 | 353 | 2.6 | 5.2 | 0.00 | 0.64 | 0.01 | 94 | 1009.0 |
| 20260510064004 | 51 | 348 | 2.6 | 7.8 | 0.00 | 0.65 | 0.01 | 94 | 1008.9 |
| 20260510063503 | 51 | 341 | 3.5 | 7.0 | 0.00 | 0.65 | 0.01 | 94 | 1008.8 |
| 20260510063004 | 51 | 343 | 3.5 | 7.0 | 0.00 | 0.66 | 0.01 | 94 | 1008.9 |
| 20260510060504 | 52 | 289 | 1.7 | 5.2 | 0.00 | 0.70 | 0.01 | 94 | 1008.6 |
| 20260510055503 | 53 | 309 | 1.7 | 7.0 | 0.01 | 0.71 | 0.01 | 94 | 1008.7 |
| 20260510055004 | 53 | 318 | 3.5 | 7.0 | 0.01 | 0.71 | 0.01 | 94 | 1008.5 |
| 20260510054504 | 53 | 314 | 3.5 | 7.0 | 0.01 | 0.71 | 0.01 | 95 | 1008.7 |
| 20260510053504 | 53 | 288 | 3.5 | 10.4 | 0.01 | 0.72 | 0.01 | 96 | 1008.7 |
| 20260510053003 | 53 | 280 | 3.5 | 11.3 | 0.01 | 0.72 | 0.01 | 96 | 1008.7 |
| 20260510052503 | 53 | 272 | 5.2 | 13.9 | 0.01 | 0.73 | 0.01 | 96 | 1008.6 |
| 20260510052003 | 53 | 283 | 7.0 | 17.4 | 0.01 | 0.73 | 0.01 | 97 | 1008.2 |
| 20260510051503 | 52 | 293 | 6.1 | 17.4 | 0.01 | 0.74 | 0.01 | 97 | 1008.1 |
| 20260510050503 | 51 | 213 | 2.6 | 7.0 | 0.00 | 0.73 | 0.00 | 96 | 1007.0 |
| 20260510050012 | 51 | 214 | 2.6 | 7.0 | 0.00 | 0.74 | 0.00 | 96 | 1006.9 |
| 20260510045511 | 51 | 214 | 1.7 | 5.2 | 0.00 | 0.74 | 0.00 | 96 | 1006.9 |
| 20260510045011 | 51 | 218 | 0.9 | 4.3 | 0.00 | 0.75 | 0.00 | 96 | 1006.9 |
| 20260510044511 | 51 | 223 | 0.9 | 2.6 | 0.00 | 0.75 | 0.00 | 96 | 1006.8 |
| 20260510044011 | 52 | 223 | 0.9 | 2.6 | 0.00 | 0.75 | 0.00 | 96 | 1006.8 |
| 20260510043511 | 52 | 223 | 0.9 | 3.5 | 0.01 | 0.75 | 0.00 | 96 | 1006.7 |
| 20260510043011 | 52 | 223 | 1.7 | 3.5 | 0.01 | 0.76 | 0.00 | 95 | 1006.7 |
| 20260510041512 | 53 | 213 | 4.3 | 11.3 | 0.01 | 0.77 | 0.00 | 96 | 1006.7 |
| 20260510041011 | 53 | 221 | 3.5 | 7.8 | 0.01 | 0.77 | 0.00 | 96 | 1006.6 |
| 20260510040511 | 53 | 227 | 4.3 | 10.4 | 0.01 | 0.77 | 0.00 | 96 | 1007.1 |
| 20260510040011 | 53 | 217 | 4.3 | 10.4 | 0.01 | 0.77 | 0.00 | 96 | 1007.0 |
| 20260510035512 | 53 | 213 | 4.3 | 9.6 | 0.01 | 0.77 | 0.77 | 96 | 1006.8 |
| 20260510035011 | 53 | 213 | 3.5 | 7.8 | 0.01 | 0.77 | 0.77 | 96 | 1006.9 |
| 20260510034010 | 52 | 219 | 2.6 | 5.2 | 0.03 | 0.78 | 0.77 | 96 | 1007.0 |
| 20260510033511 | 52 | 230 | 1.7 | 4.3 | 0.02 | 0.78 | 0.76 | 96 | 1006.8 |
| 20260510032511 | 52 | 238 | 1.7 | 2.6 | 0.02 | 0.79 | 0.76 | 96 | 1006.8 |
| 20260510032011 | 52 | 239 | 0.9 | 2.6 | 0.02 | 0.79 | 0.76 | 96 | 1006.6 |
| 20260510031510 | 52 | 239 | 0.0 | 2.6 | 0.02 | 0.79 | 0.76 | 96 | 1006.4 |
| 20260510031011 | 53 | 239 | 0.9 | 7.8 | 0.03 | 0.79 | 0.76 | 96 | 1006.5 |
| 20260510030511 | 53 | 239 | 3.5 | 7.8 | 0.03 | 0.79 | 0.76 | 96 | 1006.7 |
| 20260510030011 | 53 | 225 | 5.2 | 14.8 | 0.03 | 0.79 | 0.76 | 96 | 1006.9 |
| 20260510025511 | 53 | 221 | 7.0 | 15.6 | 0.03 | 0.79 | 0.76 | 96 | 1007.0 |
| 20260510025012 | 53 | 227 | 5.2 | 15.6 | 0.02 | 0.78 | 0.75 | 96 | 1007.3 |
| 20260510024511 | 53 | 222 | 2.6 | 8.7 | 0.02 | 0.78 | 0.75 | 97 | 1007.6 |
| 20260510024011 | 53 | 205 | 0.9 | 3.5 | 0.01 | 0.77 | 0.74 | 96 | 1006.9 |
| 20260510023511 | 52 | 198 | 0.9 | 5.2 | 0.01 | 0.77 | 0.74 | 96 | 1006.4 |
| 20260510023010 | 52 | 193 | 1.7 | 6.1 | 0.01 | 0.77 | 0.74 | 96 | 1006.5 |
| 20260510022511 | 52 | 194 | 1.7 | 6.1 | 0.01 | 0.77 | 0.74 | 96 | 1006.4 |
| 20260510022010 | 52 | 204 | 0.9 | 3.5 | 0.01 | 0.77 | 0.74 | 96 | 1006.5 |
| 20260510021511 | 52 | 205 | 0.9 | 3.5 | 0.01 | 0.77 | 0.74 | 96 | 1006.6 |
| 20260510021011 | 51 | 205 | 0.0 | 0.9 | 0.00 | 0.76 | 0.73 | 96 | 1006.6 |
| 20260510020011 | 51 | 203 | 0.9 | 5.2 | 0.00 | 0.76 | 0.73 | 96 | 1006.3 |
| 20260510015511 | 52 | 205 | 1.7 | 5.2 | 0.00 | 0.76 | 0.73 | 95 | 1006.4 |
| 20260510014512 | 52 | 207 | 1.7 | 5.2 | 0.00 | 0.77 | 0.73 | 95 | 1006.5 |
| 20260510014011 | 52 | 207 | 1.7 | 4.3 | 0.00 | 0.77 | 0.73 | 95 | 1006.5 |
| 20260510013510 | 52 | 207 | 1.7 | 4.3 | 0.00 | 0.77 | 0.73 | 95 | 1006.4 |
| 20260510013011 | 52 | 207 | 1.7 | 4.3 | 0.00 | 0.77 | 0.73 | 94 | 1006.3 |
| 20260510012511 | 52 | 206 | 2.6 | 5.2 | 0.00 | 0.77 | 0.73 | 94 | 1006.3 |
| 20260510012011 | 53 | 207 | 2.6 | 5.2 | 0.00 | 0.77 | 0.73 | 94 | 1006.3 |
| 20260510011511 | 53 | 207 | 2.6 | 4.3 | 0.00 | 0.77 | 0.73 | 94 | 1006.2 |
| 20260510011010 | 53 | 212 | 2.6 | 6.1 | 0.00 | 0.78 | 0.73 | 94 | 1006.0 |
| 20260510010511 | 53 | 224 | 3.5 | 6.1 | 0.00 | 0.78 | 0.73 | 93 | 1005.9 |
| 20260510010011 | 54 | 232 | 3.5 | 7.8 | 0.00 | 0.79 | 0.73 | 93 | 1005.9 |
| 20260510005511 | 54 | 233 | 4.3 | 7.8 | 0.00 | 0.79 | 0.73 | 94 | 1005.9 |
| 20260510005011 | 54 | 237 | 3.5 | 7.8 | 0.02 | 0.80 | 0.73 | 94 | 1006.0 |
| 20260510004510 | 54 | 239 | 3.5 | 6.1 | 0.03 | 0.81 | 0.73 | 94 | 1006.1 |
| 20260510003511 | 54 | 232 | 2.6 | 7.0 | 0.07 | 0.82 | 0.73 | 94 | 1006.0 |
| 20260510003010 | 54 | 228 | 2.6 | 7.0 | 0.07 | 0.83 | 0.73 | 94 | 1005.9 |
| 20260510002511 | 54 | 226 | 2.6 | 7.0 | 0.10 | 0.83 | 0.73 | 93 | 1006.0 |
| 20260510001511 | 54 | 239 | 3.5 | 7.8 | 0.13 | 0.84 | 0.73 | 93 | 1005.9 |
| 20260510001011 | 54 | 245 | 4.3 | 8.7 | 0.31 | 0.84 | 0.73 | 93 | 1006.0 |
| 20260510000511 | 54 | 247 | 4.3 | 10.4 | 0.51 | 0.85 | 0.73 | 93 | 1005.9 |
| 20260509235510 | 54 | 252 | 5.2 | 11.3 | 0.54 | 0.85 | 0.72 | 93 | 1006.0 |
| 20260509235011 | 54 | 255 | 7.0 | 14.8 | 0.53 | 0.85 | 0.71 | 93 | 1005.9 |
| 20260509234510 | 54 | 256 | 7.8 | 16.5 | 0.51 | 0.84 | 0.69 | 93 | 1006.1 |
| 20260509234012 | 54 | 258 | 7.8 | 16.5 | 0.49 | 0.82 | 0.67 | 92 | 1006.2 |
| 20260509233511 | 54 | 267 | 6.1 | 16.5 | 0.48 | 0.82 | 0.66 | 92 | 1006.2 |
| 20260509233011 | 54 | 292 | 4.3 | 16.5 | 0.48 | 0.82 | 0.66 | 91 | 1006.0 |
| 20260509232011 | 54 | 305 | 6.1 | 14.8 | 0.44 | 0.79 | 0.62 | 89 | 1006.0 |
| 20260509231010 | 57 | 309 | 11.3 | 26.9 | 0.21 | 0.56 | 0.39 | 79 | 1006.3 |
| 20260509223510 | 66 | 226 | 6.1 | 19.1 | 0.00 | 0.43 | 0.18 | 56 | 1003.4 |
| 20260509223011 | 66 | 229 | 6.1 | 15.6 | 0.00 | 0.44 | 0.18 | 56 | 1003.6 |
| 20260509222511 | 67 | 218 | 7.0 | 23.5 | 0.00 | 0.45 | 0.18 | 55 | 1003.6 |
| 20260509222011 | 67 | 209 | 7.8 | 23.5 | 0.00 | 0.47 | 0.18 | 55 | 1003.4 |
| 20260509221510 | 67 | 214 | 6.1 | 14.8 | 0.00 | 0.47 | 0.18 | 56 | 1003.3 |
| 20260509221010 | 67 | 218 | 6.1 | 17.4 | 0.00 | 0.47 | 0.18 | 56 | 1003.2 |
| 20260509220010 | 68 | 206 | 9.6 | 25.2 | 0.00 | 0.47 | 0.18 | 55 | 1003.2 |
| 20260509215511 | 68 | 212 | 7.8 | 21.7 | 0.00 | 0.47 | 0.18 | 54 | 1003.3 |
| 20260509215011 | 68 | 208 | 7.0 | 15.6 | 0.00 | 0.47 | 0.18 | 55 | 1003.2 |
| 20260509214511 | 68 | 206 | 8.7 | 22.6 | 0.00 | 0.47 | 0.18 | 57 | 1003.2 |
| 20260509213511 | 68 | 200 | 8.7 | 17.4 | 0.00 | 0.47 | 0.18 | 55 | 1003.2 |
| 20260509213011 | 68 | 204 | 7.8 | 20.0 | 0.00 | 0.47 | 0.18 | 55 | 1003.2 |
| 20260509212510 | 68 | 200 | 7.8 | 20.0 | 0.00 | 0.47 | 0.18 | 56 | 1003.1 |
| 20260509212011 | 68 | 201 | 7.8 | 18.2 | 0.00 | 0.47 | 0.18 | 56 | 1003.3 |
| 20260509211510 | 68 | 200 | 7.8 | 20.9 | 0.00 | 0.47 | 0.18 | 59 | 1003.5 |
| 20260509211011 | 68 | 197 | 7.8 | 20.9 | 0.00 | 0.47 | 0.18 | 58 | 1003.5 |
| 20260509210511 | 68 | 208 | 7.8 | 18.2 | 0.00 | 0.47 | 0.18 | 58 | 1003.7 |
| 20260509210010 | 68 | 210 | 8.7 | 19.1 | 0.00 | 0.47 | 0.18 | 57 | 1003.6 |
| 20260509205511 | 68 | 213 | 7.8 | 20.9 | 0.00 | 0.47 | 0.18 | 56 | 1003.6 |
| 20260509205010 | 68 | 218 | 7.8 | 20.9 | 0.00 | 0.48 | 0.18 | 57 | 1003.8 |
| 20260509204511 | 68 | 212 | 8.7 | 17.4 | 0.00 | 0.48 | 0.18 | 57 | 1003.9 |
| 20260509204010 | 68 | 213 | 8.7 | 17.4 | 0.00 | 0.48 | 0.18 | 56 | 1003.9 |
| 20260509203511 | 68 | 223 | 7.8 | 18.2 | 0.00 | 0.48 | 0.18 | 57 | 1004.0 |
| 20260509203011 | 68 | 227 | 8.7 | 21.7 | 0.00 | 0.48 | 0.18 | 57 | 1004.0 |
| 20260509202511 | 68 | 222 | 9.6 | 21.7 | 0.00 | 0.48 | 0.18 | 55 | 1004.0 |
| 20260509202011 | 67 | 213 | 9.6 | 22.6 | 0.00 | 0.48 | 0.18 | 57 | 1004.1 |
| 20260509201510 | 67 | 209 | 8.7 | 22.6 | 0.00 | 0.48 | 0.18 | 57 | 1004.1 |
| 20260509201010 | 67 | 220 | 9.6 | 21.7 | 0.00 | 0.48 | 0.18 | 56 | 1004.1 |
| 20260509200511 | 67 | 223 | 10.4 | 21.7 | 0.00 | 0.48 | 0.18 | 57 | 1004.1 |
| 20260509200010 | 68 | 212 | 8.7 | 20.0 | 0.00 | 0.48 | 0.18 | 59 | 1004.3 |
| 20260509195511 | 67 | 208 | 7.8 | 20.0 | 0.00 | 0.48 | 0.18 | 56 | 1004.3 |
| 20260509195010 | 67 | 215 | 7.8 | 19.1 | 0.00 | 0.48 | 0.18 | 60 | 1004.6 |
| 20260509194010 | 67 | 228 | 10.4 | 20.0 | 0.00 | 0.48 | 0.18 | 59 | 1004.7 |
| 20260509193510 | 67 | 221 | 9.6 | 20.0 | 0.00 | 0.48 | 0.18 | 61 | 1004.9 |
| 20260509193011 | 66 | 222 | 9.6 | 19.1 | 0.00 | 0.48 | 0.18 | 63 | 1004.9 |
| 20260509191511 | 66 | 210 | 7.8 | 18.2 | 0.00 | 0.48 | 0.18 | 63 | 1005.3 |
| 20260509191011 | 65 | 208 | 8.7 | 18.2 | 0.00 | 0.48 | 0.18 | 62 | 1005.2 |
| 20260509190511 | 65 | 207 | 7.8 | 18.2 | 0.00 | 0.48 | 0.18 | 62 | 1005.2 |
| 20260509190011 | 65 | 209 | 7.0 | 15.6 | 0.00 | 0.48 | 0.18 | 63 | 1005.2 |
| 20260509185510 | 65 | 212 | 7.0 | 17.4 | 0.00 | 0.48 | 0.18 | 65 | 1005.2 |
| 20260509185011 | 65 | 212 | 7.0 | 17.4 | 0.00 | 0.48 | 0.18 | 62 | 1005.4 |
| 20260509184510 | 65 | 203 | 7.8 | 16.5 | 0.00 | 0.48 | 0.18 | 63 | 1005.3 |
| 20260509184011 | 65 | 191 | 8.7 | 20.0 | 0.00 | 0.48 | 0.18 | 62 | 1005.2 |
| 20260509183510 | 66 | 198 | 7.8 | 20.0 | 0.00 | 0.48 | 0.18 | 63 | 1005.2 |
| 20260509182010 | 65 | 203 | 8.7 | 22.6 | 0.00 | 0.48 | 0.18 | 64 | 1005.2 |
| 20260509181511 | 64 | 211 | 8.7 | 22.6 | 0.00 | 0.48 | 0.18 | 62 | 1005.2 |
| 20260509181011 | 65 | 214 | 8.7 | 16.5 | 0.00 | 0.48 | 0.18 | 63 | 1005.3 |
| 20260509180511 | 66 | 225 | 7.8 | 16.5 | 0.00 | 0.48 | 0.18 | 64 | 1005.3 |
| 20260509180011 | 66 | 223 | 7.0 | 15.6 | 0.00 | 0.48 | 0.18 | 64 | 1005.3 |
| 20260509175510 | 65 | 219 | 7.0 | 15.6 | 0.00 | 0.48 | 0.18 | 62 | 1005.4 |
| 20260509175010 | 66 | 216 | 4.3 | 13.9 | 0.00 | 0.48 | 0.18 | 64 | 1005.3 |
| 20260509174510 | 66 | 217 | 5.2 | 18.2 | 0.00 | 0.48 | 0.18 | 68 | 1005.4 |
| 20260509174011 | 66 | 222 | 6.1 | 18.2 | 0.00 | 0.48 | 0.18 | 63 | 1005.4 |
| 20260509173510 | 66 | 221 | 5.2 | 13.9 | 0.00 | 0.48 | 0.18 | 68 | 1005.4 |
| 20260509173011 | 64 | 222 | 5.2 | 13.9 | 0.00 | 0.48 | 0.18 | 66 | 1005.4 |
| 20260509172510 | 64 | 219 | 6.1 | 13.9 | 0.00 | 0.48 | 0.18 | 64 | 1005.4 |
| 20260509172011 | 64 | 199 | 7.0 | 15.6 | 0.00 | 0.48 | 0.18 | 70 | 1005.4 |
| 20260509171511 | 63 | 190 | 6.1 | 15.6 | 0.00 | 0.48 | 0.18 | 70 | 1005.4 |
| 20260509171010 | 64 | 205 | 6.1 | 13.9 | 0.00 | 0.48 | 0.18 | 71 | 1005.4 |
| 20260509170511 | 64 | 212 | 7.0 | 13.9 | 0.00 | 0.48 | 0.18 | 70 | 1005.3 |
| 20260509165511 | 63 | 229 | 6.1 | 13.0 | 0.00 | 0.48 | 0.18 | 70 | 1005.5 |
| 20260509165010 | 62 | 237 | 5.2 | 11.3 | 0.00 | 0.48 | 0.18 | 69 | 1005.6 |
| 20260509164010 | 63 | 221 | 3.5 | 9.6 | 0.00 | 0.48 | 0.18 | 79 | 1005.7 |
| 20260509163511 | 62 | 238 | 4.3 | 11.3 | 0.00 | 0.48 | 0.18 | 73 | 1005.9 |
| 20260509163010 | 62 | 245 | 5.2 | 11.3 | 0.00 | 0.48 | 0.18 | 72 | 1005.9 |
| 20260509162510 | 62 | 245 | 5.2 | 12.2 | 0.00 | 0.48 | 0.18 | 78 | 1006.0 |
| 20260509162010 | 59 | 245 | 6.1 | 12.2 | 0.00 | 0.48 | 0.18 | 77 | 1006.1 |
| 20260509161510 | 60 | 255 | 5.2 | 10.4 | 0.00 | 0.48 | 0.18 | 77 | 1006.2 |
| 20260509161011 | 59 | 260 | 4.3 | 9.6 | 0.00 | 0.48 | 0.18 | 81 | 1006.2 |
| 20260509160511 | 58 | 261 | 5.2 | 10.4 | 0.00 | 0.48 | 0.18 | 82 | 1006.3 |
| 20260509160011 | 58 | 270 | 5.2 | 10.4 | 0.00 | 0.48 | 0.18 | 81 | 1006.2 |
| 20260509155510 | 58 | 268 | 5.2 | 10.4 | 0.00 | 0.48 | 0.18 | 81 | 1006.3 |
| 20260509155011 | 59 | 252 | 5.2 | 10.4 | 0.00 | 0.48 | 0.18 | 79 | 1006.1 |
| 20260509154510 | 60 | 238 | 4.3 | 9.6 | 0.00 | 0.48 | 0.18 | 79 | 1006.1 |
| 20260509154010 | 59 | 244 | 4.3 | 12.2 | 0.00 | 0.48 | 0.18 | 82 | 1006.1 |
| 20260509153510 | 59 | 243 | 7.0 | 15.6 | 0.00 | 0.48 | 0.18 | 80 | 1006.1 |
| 20260509153010 | 58 | 240 | 7.8 | 15.6 | 0.00 | 0.48 | 0.18 | 79 | 1006.1 |
| 20260509152511 | 60 | 238 | 7.8 | 13.9 | 0.00 | 0.48 | 0.18 | 79 | 1006.1 |
| 20260509151511 | 59 | 230 | 3.5 | 13.0 | 0.00 | 0.48 | 0.18 | 85 | 1006.1 |
| 20260509150510 | 57 | 239 | 3.5 | 9.6 | 0.00 | 0.48 | 0.18 | 88 | 1006.1 |
| 20260509150010 | 56 | 214 | 3.5 | 8.7 | 0.00 | 0.48 | 0.18 | 89 | 1006.3 |
| 20260509145511 | 56 | 221 | 4.3 | 9.6 | 0.00 | 0.48 | 0.18 | 90 | 1006.3 |
| 20260509145011 | 56 | 235 | 5.2 | 13.9 | 0.00 | 0.48 | 0.18 | 89 | 1006.3 |
| 20260509144510 | 56 | 228 | 5.2 | 13.9 | 0.00 | 0.48 | 0.18 | 90 | 1006.3 |
| 20260509144011 | 56 | 226 | 6.1 | 10.4 | 0.00 | 0.48 | 0.18 | 90 | 1006.2 |
| 20260509143511 | 56 | 227 | 6.1 | 10.4 | 0.00 | 0.48 | 0.18 | 90 | 1006.1 |
| 20260509143010 | 56 | 225 | 4.3 | 10.4 | 0.00 | 0.48 | 0.18 | 91 | 1006.2 |
| 20260509142511 | 56 | 234 | 3.5 | 10.4 | 0.00 | 0.48 | 0.18 | 92 | 1006.2 |
| 20260509142010 | 55 | 234 | 4.3 | 10.4 | 0.00 | 0.48 | 0.18 | 93 | 1006.2 |
| 20260509141511 | 55 | 228 | 4.3 | 8.7 | 0.00 | 0.48 | 0.18 | 94 | 1006.2 |
| 20260509141010 | 54 | 224 | 4.3 | 9.6 | 0.00 | 0.48 | 0.18 | 94 | 1006.2 |
| 20260509140511 | 54 | 225 | 3.5 | 9.6 | 0.00 | 0.48 | 0.18 | 95 | 1006.2 |
| 20260509135010 | 54 | 215 | 4.3 | 8.7 | 0.00 | 0.48 | 0.18 | 95 | 1006.1 |
| 20260509134510 | 54 | 210 | 4.3 | 8.7 | 0.00 | 0.48 | 0.18 | 95 | 1006.2 |
| 20260509134011 | 54 | 215 | 3.5 | 11.3 | 0.00 | 0.48 | 0.18 | 95 | 1006.1 |
| 20260509133510 | 53 | 219 | 3.5 | 11.3 | 0.00 | 0.48 | 0.18 | 96 | 1006.2 |
| 20260509132510 | 53 | 219 | 2.6 | 7.8 | 0.01 | 0.48 | 0.18 | 96 | 1006.3 |
| 20260509132010 | 53 | 218 | 2.6 | 5.2 | 0.01 | 0.48 | 0.18 | 96 | 1006.2 |
| 20260509131510 | 53 | 235 | 2.6 | 7.0 | 0.01 | 0.49 | 0.18 | 96 | 1006.3 |
| 20260509131011 | 53 | 234 | 2.6 | 7.0 | 0.01 | 0.49 | 0.18 | 96 | 1006.3 |
| 20260509130510 | 53 | 225 | 3.5 | 7.0 | 0.01 | 0.50 | 0.18 | 96 | 1006.4 |
| 20260509130011 | 53 | 221 | 4.3 | 9.6 | 0.01 | 0.51 | 0.18 | 96 | 1006.4 |
| 20260509125510 | 52 | 222 | 4.3 | 9.6 | 0.01 | 0.51 | 0.18 | 96 | 1006.4 |
| 20260509125010 | 53 | 227 | 3.5 | 8.7 | 0.01 | 0.51 | 0.18 | 96 | 1006.5 |
| 20260509123510 | 52 | 214 | 3.5 | 7.8 | 0.01 | 0.51 | 0.18 | 97 | 1006.7 |
| 20260509123010 | 52 | 217 | 4.3 | 8.7 | 0.01 | 0.51 | 0.18 | 97 | 1006.6 |
| 20260509122510 | 52 | 215 | 3.5 | 8.7 | 0.00 | 0.50 | 0.17 | 97 | 1006.7 |
| 20260509121010 | 52 | 208 | 3.5 | 7.8 | 0.00 | 0.50 | 0.17 | 97 | 1006.6 |
| 20260509120510 | 52 | 212 | 3.5 | 7.8 | 0.00 | 0.51 | 0.17 | 97 | 1006.7 |
| 20260509120010 | 52 | 212 | 2.6 | 7.0 | 0.00 | 0.52 | 0.17 | 97 | 1006.6 |
| 20260509115510 | 52 | 214 | 2.6 | 7.0 | 0.00 | 0.55 | 0.17 | 97 | 1006.7 |
| 20260509115011 | 52 | 211 | 3.5 | 6.1 | 0.00 | 0.55 | 0.17 | 97 | 1006.7 |
| 20260509114510 | 51 | 200 | 3.5 | 7.0 | 0.00 | 0.55 | 0.17 | 97 | 1006.6 |
| 20260509114010 | 51 | 200 | 3.5 | 9.6 | 0.00 | 0.55 | 0.17 | 97 | 1006.6 |
| 20260509113510 | 51 | 197 | 2.6 | 9.6 | 0.00 | 0.55 | 0.17 | 97 | 1006.7 |
| 20260509113010 | 51 | 192 | 2.6 | 6.1 | 0.00 | 0.55 | 0.17 | 97 | 1006.6 |
| 20260509112510 | 51 | 194 | 2.6 | 6.1 | 0.00 | 0.55 | 0.17 | 97 | 1006.6 |
| 20260509112010 | 51 | 200 | 2.6 | 5.2 | 0.00 | 0.55 | 0.17 | 97 | 1006.6 |
| 20260509111510 | 51 | 208 | 2.6 | 6.1 | 0.00 | 0.55 | 0.17 | 97 | 1006.6 |
| 20260509110510 | 51 | 211 | 2.6 | 6.1 | 0.00 | 0.55 | 0.17 | 97 | 1006.4 |
| 20260509110010 | 51 | 209 | 1.7 | 5.2 | 0.00 | 0.55 | 0.17 | 97 | 1006.4 |
| 20260509105511 | 51 | 198 | 2.6 | 6.1 | 0.00 | 0.55 | 0.17 | 97 | 1006.4 |
| 20260509105010 | 51 | 189 | 2.6 | 6.1 | 0.00 | 0.55 | 0.17 | 97 | 1006.3 |
| 20260509104510 | 51 | 176 | 2.6 | 5.2 | 0.00 | 0.55 | 0.17 | 97 | 1006.3 |
| 20260509104011 | 51 | 177 | 1.7 | 6.1 | 0.00 | 0.55 | 0.17 | 97 | 1006.3 |
| 20260509103510 | 51 | 195 | 1.7 | 6.1 | 0.00 | 0.55 | 0.17 | 97 | 1006.3 |
| 20260509102010 | 50 | 157 | 1.7 | 5.2 | 0.00 | 0.55 | 0.17 | 97 | 1006.4 |
| 20260509101510 | 50 | 172 | 1.7 | 4.3 | 0.00 | 0.55 | 0.17 | 97 | 1006.5 |
| 20260509101010 | 50 | 190 | 1.7 | 5.2 | 0.00 | 0.55 | 0.17 | 97 | 1006.5 |
| 20260509100510 | 50 | 193 | 1.7 | 5.2 | 0.00 | 0.55 | 0.17 | 97 | 1006.4 |
| 20260509100010 | 50 | 201 | 2.6 | 6.1 | 0.00 | 0.55 | 0.17 | 97 | 1006.5 |
| 20260509095510 | 50 | 202 | 3.5 | 6.1 | 0.00 | 0.55 | 0.17 | 97 | 1006.5 |
| 20260509095010 | 51 | 197 | 2.6 | 6.1 | 0.00 | 0.55 | 0.17 | 97 | 1006.6 |
| 20260509094510 | 50 | 199 | 1.7 | 6.1 | 0.00 | 0.55 | 0.17 | 97 | 1006.6 |
| 20260509094010 | 51 | 193 | 2.6 | 6.1 | 0.00 | 0.55 | 0.17 | 97 | 1006.7 |
| 20260509093510 | 51 | 187 | 2.6 | 6.1 | 0.00 | 0.55 | 0.17 | 97 | 1006.6 |
| 20260509093011 | 51 | 195 | 3.5 | 7.0 | 0.00 | 0.55 | 0.17 | 97 | 1006.6 |
| 20260509092510 | 51 | 212 | 3.5 | 7.0 | 0.00 | 0.55 | 0.17 | 97 | 1006.7 |
| 20260509092010 | 51 | 220 | 2.6 | 6.1 | 0.00 | 0.55 | 0.17 | 96 | 1006.8 |
| 20260509091510 | 51 | 215 | 2.6 | 11.3 | 0.00 | 0.55 | 0.17 | 97 | 1006.9 |
| 20260509091010 | 51 | 217 | 3.5 | 11.3 | 0.00 | 0.55 | 0.17 | 97 | 1006.9 |
| 20260509090510 | 51 | 221 | 3.5 | 11.3 | 0.00 | 0.55 | 0.17 | 97 | 1006.9 |
| 20260509085510 | 51 | 214 | 2.6 | 7.0 | 0.00 | 0.55 | 0.17 | 97 | 1006.8 |
| 20260509085010 | 51 | 205 | 3.5 | 8.7 | 0.00 | 0.55 | 0.17 | 97 | 1006.9 |
| 20260509084510 | 51 | 196 | 3.5 | 9.6 | 0.00 | 0.55 | 0.17 | 97 | 1006.9 |
| 20260509084010 | 50 | 201 | 3.5 | 9.6 | 0.00 | 0.55 | 0.17 | 97 | 1007.0 |
| 20260509083510 | 50 | 207 | 3.5 | 7.8 | 0.00 | 0.55 | 0.17 | 97 | 1007.0 |
| 20260509083010 | 50 | 212 | 2.6 | 7.0 | 0.00 | 0.55 | 0.17 | 97 | 1007.0 |
| 20260509082511 | 50 | 217 | 2.6 | 6.1 | 0.00 | 0.55 | 0.17 | 97 | 1007.1 |
| 20260509082010 | 50 | 210 | 2.6 | 6.1 | 0.01 | 0.55 | 0.17 | 97 | 1007.1 |
| 20260509081510 | 50 | 213 | 1.7 | 6.1 | 0.01 | 0.55 | 0.17 | 97 | 1007.0 |
| 20260509081010 | 50 | 220 | 0.9 | 5.2 | 0.02 | 0.55 | 0.17 | 96 | 1007.1 |
| 20260509080510 | 50 | 196 | 0.9 | 4.3 | 0.02 | 0.55 | 0.17 | 97 | 1007.1 |
| 20260509080010 | 50 | 178 | 1.7 | 5.2 | 0.03 | 0.55 | 0.17 | 97 | 1007.1 |
| 20260509074510 | 50 | 199 | 1.7 | 7.0 | 0.04 | 0.55 | 0.17 | 97 | 1007.1 |
| 20260509074010 | 50 | 193 | 1.7 | 7.0 | 0.04 | 0.55 | 0.17 | 96 | 1007.1 |
| 20260509073510 | 50 | 197 | 1.7 | 4.3 | 0.04 | 0.55 | 0.17 | 96 | 1007.2 |
| 20260509073010 | 50 | 213 | 1.7 | 4.3 | 0.05 | 0.55 | 0.17 | 96 | 1007.2 |
| 20260509072510 | 50 | 208 | 1.7 | 3.5 | 0.06 | 0.55 | 0.17 | 96 | 1007.2 |
| 20260509072011 | 50 | 191 | 1.7 | 5.2 | 0.06 | 0.54 | 0.16 | 96 | 1007.3 |
| 20260509071510 | 50 | 210 | 1.7 | 5.2 | 0.07 | 0.54 | 0.16 | 96 | 1007.4 |
| 20260509071010 | 50 | 229 | 1.7 | 4.3 | 0.07 | 0.53 | 0.15 | 96 | 1007.4 |
| 20260509070510 | 50 | 228 | 1.7 | 5.2 | 0.07 | 0.53 | 0.15 | 96 | 1007.4 |